Total_Precipitation_Accumulation
0.78 0.78 0.78 0.76 0.74 0.74 0.74 0.71 0.72 0.77 0.77 0.80 0.95 1.00 1.06 1.13 1.29 1.54 1.70 1.72 1.64 1.61 1.60 1.65 1.77 1.87 2.11 2.08 1.98 1.85 1.69 1.51 1.32 1.15 0.93 0.73 0.78 0.82 0.87 0.80 0.73 0.69 0.57
0.88 0.86 0.78 0.70 0.67 0.67 0.64 0.57 0.57 0.53 0.53 0.64 0.76 0.81 0.85 0.88 1.04 1.32 1.51 1.54 1.48 1.40 1.37 1.43 1.62 1.80 2.02 2.13 2.09 1.96 1.83 1.70 1.55 1.42 1.22 0.99 0.87 0.86 0.95 1.00 0.94 0.88 0.80
0.92 0.82 0.74 0.68 0.59 0.55 0.49 0.45 0.50 0.51 0.56 0.65 0.74 0.79 0.82 0.86 0.87 0.96 1.08 1.20 1.21 1.17 1.16 1.17 1.21 1.37 1.64 1.84 1.91 1.93 1.96 1.92 1.84 1.65 1.42 1.25 1.10 0.96 0.97 1.00 0.97 1.01 0.95
1.06 0.96 0.85 0.73 0.62 0.56 0.49 0.45 0.43 0.45 0.51 0.56 0.60 0.68 0.78 0.81 0.80 0.80 0.81 0.87 0.88 0.92 0.96 1.00 1.03 1.06 1.22 1.40 1.54 1.74 1.95 1.94 1.92 1.83 1.60 1.34 1.18 1.07 1.08 1.08 1.09 1.06 1.03
1.08 1.07 0.93 0.74 0.61 0.54 0.50 0.43 0.40 0.41 0.42 0.47 0.52 0.55 0.62 0.69 0.74 0.75 0.65 0.62 0.68 0.74 0.78 0.79 0.81 0.89 1.00 1.08 1.15 1.45 1.75 1.87 1.84 1.79 1.68 1.48 1.22 1.12 1.02 0.99 1.08 1.23 1.23
0.99 0.97 0.75 0.58 0.46 0.41 0.41 0.39 0.35 0.34 0.39 0.44 0.44 0.46 0.56 0.57 0.68 0.65 0.51 0.50 0.53 0.63 0.72 0.70 0.64 0.64 0.70 0.76 0.83 0.98 1.21 1.41 1.62 1.74 1.70 1.50 1.31 1.16 1.10 1.11 1.12 1.17 1.24
0.64 0.60 0.51 0.40 0.38 0.41 0.43 0.37 0.34 0.34 0.35 0.38 0.39 0.40 0.45 0.57 0.58 0.42 0.39 0.43 0.51 0.57 0.65 0.70 0.63 0.54 0.60 0.63 0.72 0.80 0.80 0.86 1.09 1.36 1.49 1.48 1.52 1.33 1.24 1.17 1.12 1.16 1.18
0.40 0.40 0.34 0.30 0.31 0.34 0.35 0.34 0.40 0.44 0.42 0.42 0.44 0.44 0.44 0.49 0.46 0.33 0.34 0.38 0.45 0.52 0.61 0.70 0.75 0.67 0.66 0.75 0.74 0.76 0.71 0.68 0.84 0.85 1.00 1.29 1.42 1.44 1.36 1.39 1.51 1.44 1.27
0.12 0.13 0.12 0.12 0.13 0.14 0.16 0.22 0.33 0.40 0.42 0.44 0.48 0.48 0.43 0.40 0.39 0.30 0.29 0.38 0.46 0.53 0.56 0.62 0.69 0.66 0.77 0.85 0.82 0.91 0.89 0.79 0.91 0.95 0.98 1.00 1.06 1.14 1.23 1.28 1.35 1.39 1.36
0.01 0.01 0.01 0.02 0.02 0.04 0.06 0.09 0.15 0.19 0.24 0.32 0.34 0.38 0.41 0.38 0.46 0.33 0.32 0.38 0.49 0.60 0.63 0.62 0.76 0.75 0.78 0.76 0.73 0.92 0.95 0.85 0.75 0.81 0.81 0.78 0.71 0.77 0.92 1.05 1.21 1.25 1.20
0.00 0.00 0.00 0.00 0.00 0.01 0.02 0.03 0.06 0.08 0.12 0.17 0.21 0.27 0.34 0.39 0.46 0.43 0.46 0.48 0.54 0.68 0.70 0.63 0.57 0.66 0.56 0.60 0.63 0.67 0.87 0.87 0.76 0.78 0.78 0.73 0.66 0.65 0.71 0.80 0.98 1.12 1.11
0.00 0.00 0.00 0.00 0.00 0.01 0.01 0.02 0.02 0.03 0.06 0.09 0.11 0.15 0.22 0.27 0.33 0.38 0.38 0.41 0.47 0.60 0.68 0.57 0.54 0.61 0.47 0.45 0.47 0.57 0.69 0.78 0.74 0.76 0.74 0.73 0.66 0.58 0.59 0.66 0.73 0.76 0.76
0.00 0.00 0.00 0.00 0.01 0.01 0.01 0.01 0.02 0.03 0.05 0.06 0.09 0.15 0.21 0.28 0.29 0.25 0.22 0.24 0.29 0.43 0.49 0.50 0.50 0.47 0.43 0.40 0.41 0.47 0.53 0.62 0.74 0.73 0.66 0.64 0.58 0.54 0.52 0.52 0.58 0.63 0.63
0.00 0.00 0.00 0.01 0.01 0.01 0.02 0.03 0.03 0.04 0.05 0.09 0.13 0.18 0.23 0.26 0.28 0.25 0.26 0.28 0.27 0.32 0.34 0.34 0.37 0.39 0.43 0.42 0.39 0.42 0.49 0.58 0.62 0.58 0.52 0.51 0.51 0.52 0.55 0.55 0.56 0.59 0.64
0.00 0.00 0.00 0.00 0.01 0.01 0.01 0.01 0.02 0.03 0.04 0.10 0.17 0.21 0.21 0.21 0.15 0.14 0.24 0.34 0.40 0.46 0.53 0.48 0.50 0.50 0.47 0.42 0.39 0.40 0.43 0.47 0.46 0.43 0.40 0.37 0.36 0.40 0.46 0.49 0.51 0.50 0.53
0.00 0.00 0.00 0.00 0.01 0.01 0.01 0.01 0.01 0.02 0.05 0.07 0.07 0.09 0.10 0.09 0.09 0.10 0.16 0.26 0.34 0.45 0.60 0.65 0.69 0.70 0.63 0.53 0.43 0.36 0.32 0.33 0.35 0.37 0.37 0.36 0.34 0.35 0.39 0.40 0.42 0.40 0.41
0.00 0.00 0.00 0.00 0.01 0.01 0.02 0.04 0.05 0.04 0.02 0.01 0.01 0.02 0.08 0.15 0.19 0.23 0.24 0.28 0.31 0.42 0.61 0.68 0.69 0.67 0.59 0.52 0.46 0.38 0.31 0.28 0.29 0.30 0.29 0.30 0.30 0.31 0.34 0.34 0.33 0.33 0.33
0.00 0.00 0.00 0.03 0.05 0.05 0.05 0.09 0.13 0.17 0.14 0.07 0.01 0.01 0.04 0.12 0.15 0.18 0.25 0.37 0.39 0.45 0.53 0.54 0.53 0.41 0.33 0.29 0.25 0.21 0.18 0.17 0.19 0.19 0.17 0.19 0.21 0.21 0.22 0.25 0.28 0.30 0.31
0.00 0.01 0.03 0.07 0.09 0.07 0.08 0.13 0.14 0.10 0.08 0.07 0.04 0.02 0.01 0.04 0.06 0.08 0.16 0.34 0.36 0.30 0.25 0.21 0.19 0.16 0.11 0.11 0.10 0.10 0.09 0.08 0.08 0.08 0.07 0.08 0.10 0.12 0.14 0.16 0.20 0.24 0.27
0.00 0.00 0.02 0.07 0.09 0.07 0.07 0.07 0.07 0.05 0.03 0.04 0.04 0.04 0.04 0.05 0.07 0.08 0.09 0.14 0.13 0.09 0.07 0.07 0.07 0.05 0.05 0.05 0.04 0.04 0.04 0.04 0.05 0.05 0.05 0.05 0.06 0.08 0.10 0.14 0.17 0.20 0.21
0.00 0.00 0.00 0.03 0.05 0.04 0.03 0.03 0.03 0.02 0.02 0.03 0.02 0.01 0.03 0.07 0.08 0.07 0.07 0.06 0.05 0.04 0.04 0.06 0.04 0.03 0.03 0.04 0.04 0.04 0.04 0.05 0.04 0.04 0.04 0.05 0.06 0.08 0.10 0.14 0.19 0.22 0.23
0.00 0.01 0.02 0.04 0.04 0.02 0.02 0.03 0.05 0.04 0.02 0.03 0.03 0.02 0.03 0.06 0.07 0.06 0.06 0.06 0.04 0.04 0.06 0.08 0.08 0.06 0.05 0.05 0.05 0.05 0.05 0.05 0.05 0.05 0.05 0.05 0.05 0.06 0.08 0.12 0.16 0.20 0.25
0.00 0.00 0.01 0.03 0.03 0.01 0.01 0.03 0.04 0.04 0.02 0.02 0.03 0.04 0.04 0.06 0.06 0.07 0.07 0.08 0.08 0.09 0.08 0.09 0.11 0.10 0.08 0.07 0.08 0.08 0.08 0.07 0.07 0.07 0.07 0.07 0.07 0.07 0.09 0.10 0.11 0.14 0.18
0.00 0.00 0.01 0.02 0.02 0.01 0.02 0.03 0.04 0.03 0.03 0.04 0.05 0.05 0.05 0.06 0.05 0.04 0.05 0.06 0.08 0.10 0.08 0.08 0.08 0.08 0.07 0.08 0.09 0.09 0.13 0.13 0.09 0.08 0.08 0.09 0.10 0.10 0.12 0.15 0.19 0.21 0.22
0.00 0.00 0.01 0.02 0.02 0.01 0.01 0.02 0.03 0.03 0.03 0.04 0.04 0.03 0.03 0.04 0.03 0.03 0.04 0.05 0.07 0.08 0.07 0.07 0.08 0.07 0.06 0.06 0.07 0.09 0.15 0.16 0.14 0.12 0.09 0.09 0.11 0.14 0.18 0.25 0.31 0.33 0.34
0.00 0.00 0.00 0.01 0.01 0.01 0.01 0.02 0.03 0.02 0.02 0.02 0.02 0.02 0.03 0.03 0.02 0.02 0.03 0.03 0.04 0.05 0.04 0.05 0.07 0.06 0.06 0.07 0.08 0.12 0.15 0.15 0.13 0.13 0.09 0.08 0.10 0.12 0.14 0.16 0.21 0.25 0.29